Weather History for KN60 - March, 2014

Change the Weather History Date:

Tuesday, March 25, 2014

  Actual Average Record
Temperature  
Mean Temperature 16 °F -  
Max Temperature 27 °F 39 °F 75 °F (2007)
Min Temperature 5 °F 21 °F -4 °F (2013)
Degree Days  
Heating Degree Days 49    
Month to date heating degree days 1035  
Moisture  
Dew Point 4 °F    
Average Humidity 55    
Maximum Humidity 80    
Minimum Humidity 29    
Precipitation  
Precipitation 0.00 in - - ()
Month to date precipitation 0.28  
Year to date precipitation 1.16  
Sea Level Pressure  
Sea Level Pressure 30.26 in    
Wind  
Wind Speed 9 mph (West)    
Max Wind Speed 16 mph    
Max Gust Speed 20 mph    
Averages and records for this station are not official NWS values.
T = Trace of Precipitation, MM = Missing Value Source: NWS Daily Summary

Daily Weather History Graph

Daily Weather History Graph

Search for Another Location

Airport or City:

Trip Planner

Search our weather history database for the weather conditions in past years. The results will help you decide how hot, cold, wet, or windy it might be!

Date:

Astronomy

Mar. 25, 2014 Rise Set
Actual Time 7:38 AM CDT 8:05 PM CDT
Civil Twilight 7:07 AM CDT 8:36 PM CDT
Nautical Twilight 6:31 AM CDT 9:13 PM CDT
Astronomical Twilight 5:53 AM CDT 9:51 PM CDT
Moon 4:23 AM CDT (3/25) 2:18 PM CDT (3/25)
Length of Visible Light 13h 29m
Length of Day
12h 27m
Waning Crescent, 32% of the Moon is Illuminated
Mar 25
Waning Crescent
Mar 30
New
Apr 7
First Quarter
Apr 15
Full
Apr 22
Last Quarter

Hourly Weather History & Observations

Time (CDT) Temp. Windchill Dew Point Humidity Pressure Visibility Wind Dir Wind Speed Gust Speed Precip Events Conditions
12:52 AM 10.9 °F -6.5 °F 3.0 °F 70% 30.44 in - NW 17.3 mph - N/A   Unknown
1:52 AM 9.0 °F -5.9 °F 3.0 °F 77% 30.44 in - WNW 11.5 mph - N/A   Unknown
2:52 AM 10.0 °F -5.9 °F 3.9 °F 76% 30.43 in - WNW 13.8 mph - N/A   Unknown
3:52 AM 9.0 °F -5.1 °F 3.9 °F 80% 30.43 in - WNW 10.4 mph - N/A   Unknown
4:52 AM 8.1 °F -5.3 °F 3.0 °F 80% 30.42 in - WNW 9.2 mph - N/A   Unknown
5:52 AM 6.1 °F -6.8 °F 1.9 °F 83% 30.42 in - WNW 8.1 mph - N/A   Unknown
6:52 AM 7.0 °F -5.7 °F 1.9 °F 80% 30.42 in - NW 8.1 mph - N/A   Unknown
7:52 AM 6.1 °F -7.8 °F 1.9 °F 83% 30.41 in - WNW 9.2 mph - N/A   Unknown
8:52 AM 10.9 °F -2.6 °F 5.0 °F 77% 30.40 in - WNW 10.4 mph - N/A   Unknown
9:52 AM 12.0 °F -2.0 °F 3.0 °F 67% 30.39 in - WNW 11.5 mph - N/A   Unknown
10:52 AM 16.0 °F 3.6 °F 3.0 °F 57% 30.38 in - West 10.4 mph 19.6 mph N/A   Unknown
11:52 AM 18.0 °F 6.9 °F 3.9 °F 54% 30.35 in - West 9.2 mph - N/A   Unknown
12:52 PM 19.9 °F 10.1 °F 3.0 °F 48% 30.31 in - WNW 8.1 mph - N/A   Unknown
1:52 PM 21.0 °F 11.4 °F 3.0 °F 46% 30.28 in - SSW 8.1 mph - N/A   Unknown
2:52 PM 25.0 °F 14.8 °F 6.1 °F 45% 30.23 in - West 10.4 mph - N/A   Unknown
3:52 PM 26.1 °F 19.4 °F 3.0 °F 37% 30.19 in - WSW 5.8 mph - N/A   Unknown
4:52 PM 26.1 °F 19.4 °F -2.0 °F 30% 30.16 in - WSW 5.8 mph - N/A   Unknown
5:52 PM 26.1 °F 21.9 °F -2.9 °F 28% 30.13 in - Variable 3.5 mph - N/A   Unknown
6:52 PM 27.0 °F 19.5 °F 3.9 °F 37% 30.09 in - SE 6.9 mph - N/A   Unknown
7:52 PM 23.0 °F 14.7 °F 6.1 °F 48% 30.06 in - ESE 6.9 mph - N/A   Unknown
8:52 PM 19.0 °F 9.0 °F 7.0 °F 59% 30.04 in - East 8.1 mph - N/A   Unknown
9:52 PM 19.0 °F 9.0 °F 9.0 °F 65% 30.01 in - East 8.1 mph - N/A   Unknown
10:52 PM 19.0 °F 12.3 °F 9.0 °F 65% 29.99 in - SSE 4.6 mph - N/A   Unknown
11:52 PM 21.0 °F 10.6 °F 9.0 °F 60% 29.94 in - SE 9.2 mph - N/A   Unknown